Radiation Dose measured at exhaust stack monitor of Miscellaneous Solid Waste Incinerator Building/Incinerator raregas monitor
Date,Time,Incinerator Gas Monitor(cps),Wind Direction,Wind Velocity(m/s)
2022/05/02,00:00,1.4,north-northwest,4.0
2022/05/02,00:10,1.5,north-northwest,4.5
2022/05/02,00:20,1.4,north-northwest,4.3
2022/05/02,00:30,1.5,north,4.2
2022/05/02,00:40,1.5,north-northwest,5.0
2022/05/02,00:50,1.5,north-northwest,6.2
2022/05/02,01:00,1.5,north-northwest,6.6
2022/05/02,01:10,1.5,north-northwest,5.9
2022/05/02,01:20,1.5,north-northwest,6.1
2022/05/02,01:30,1.5,north-northwest,6.3
2022/05/02,01:40,1.6,north-northwest,7.2
2022/05/02,01:50,1.5,north-northwest,6.8
2022/05/02,02:00,1.5,north-northwest,6.0
2022/05/02,02:10,1.5,north-northwest,4.9
2022/05/02,02:20,1.5,north-northwest,4.9
2022/05/02,02:30,1.6,northwest,3.4
2022/05/02,02:40,1.6,north-northwest,5.0
2022/05/02,02:50,1.5,north-northwest,5.1
2022/05/02,03:00,1.6,northwest,4.5
2022/05/02,03:10,1.5,north-northwest,3.9
2022/05/02,03:20,1.5,northwest,4.6
2022/05/02,03:30,1.4,north-northwest,3.8
2022/05/02,03:40,1.4,north-northwest,4.5
2022/05/02,03:50,1.5,north-northwest,4.3
2022/05/02,04:00,1.5,north-northwest,4.1
2022/05/02,04:10,1.4,north,5.7
2022/05/02,04:20,1.6,north,5.9
2022/05/02,04:30,1.5,north,5.1
2022/05/02,04:40,1.5,north,4.5
2022/05/02,04:50,1.5,north-northwest,4.4
2022/05/02,05:00,1.5,north-northwest,3.8
2022/05/02,05:10,1.5,north,3.7
2022/05/02,05:20,1.5,north-northwest,4.2
2022/05/02,05:30,1.5,north-northwest,4.4
2022/05/02,05:40,1.4,northwest,6.1
2022/05/02,05:50,1.5,northwest,8.5
2022/05/02,06:00,1.6,northwest,4.2
2022/05/02,06:10,1.6,northwest,3.2
2022/05/02,06:20,1.5,northwest,4.7
2022/05/02,06:30,1.6,northwest,3.8
2022/05/02,06:40,1.4,northwest,4.4
2022/05/02,06:50,1.5,northwest,3.0
2022/05/02,07:00,1.5,north-northwest,2.5
2022/05/02,07:10,1.4,north,1.9
2022/05/02,07:20,1.5,north-northwest,1.7
2022/05/02,07:30,1.5,northeast,1.7
2022/05/02,07:40,1.5,north-northeast,3.3
2022/05/02,07:50,1.5,north-northeast,3.5
2022/05/02,08:00,1.5,north-northeast,3.8
2022/05/02,08:10,1.5,north-northeast,3.6
2022/05/02,08:20,1.6,northeast,3.4
2022/05/02,08:30,1.5,north-northeast,4.5
2022/05/02,08:40,1.5,north-northeast,4.8
2022/05/02,08:50,1.6,north-northeast,3.2
2022/05/02,09:00,1.5,northeast,3.4
2022/05/02,09:10,1.5,northeast,4.1
2022/05/02,09:20,1.6,northeast,4.3
2022/05/02,09:30,1.4,northeast,5.1
2022/05/02,09:40,1.5,north-northeast,5.4
2022/05/02,09:50,1.5,northeast,5.6
2022/05/02,10:00,1.4,northeast,5.8
2022/05/02,10:10,1.5,northeast,5.9
2022/05/02,10:20,1.5,northeast,6.3
2022/05/02,10:30,1.5,northeast,6.1
2022/05/02,10:40,1.5,northeast,5.4
2022/05/02,10:50,1.5,northeast,5.5
2022/05/02,11:00,1.5,northeast,4.9
2022/05/02,11:10,1.6,northeast,5.1
2022/05/02,11:20,1.5,northeast,4.1
2022/05/02,11:30,1.6,east-northeast,4.4
2022/05/02,11:40,1.5,northeast,3.4
2022/05/02,11:50,1.5,northeast,3.1
2022/05/02,12:00,1.5,northeast,3.3
2022/05/02,12:10,1.5,northeast,3.0
2022/05/02,12:20,1.5,northeast,2.6
2022/05/02,12:30,1.5,northeast,2.9
2022/05/02,12:40,1.6,east-northeast,2.6
2022/05/02,12:50,1.5,east-northeast,3.5
2022/05/02,13:00,1.5,east,3.2
2022/05/02,13:10,1.4,east-northeast,3.2
2022/05/02,13:20,1.5,east-northeast,3.0
2022/05/02,13:30,1.6,east-northeast,3.4
2022/05/02,13:40,1.5,northeast,2.3
2022/05/02,13:50,1.5,east,2.2
2022/05/02,14:00,1.5,east-southeast,2.3
2022/05/02,14:10,1.4,southeast,3.4
2022/05/02,14:20,1.5,south-southeast,3.0
2022/05/02,14:30,1.4,southeast,4.2
2022/05/02,14:40,1.4,south-southeast,4.6
2022/05/02,14:50,1.6,south-southeast,4.9
2022/05/02,15:00,1.5,south-southeast,4.4
2022/05/02,15:10,1.4,south-southeast,4.3
2022/05/02,15:20,1.5,south-southeast,3.8
2022/05/02,15:30,1.5,south-southeast,4.2
2022/05/02,15:40,1.5,south-southeast,3.6
2022/05/02,15:50,1.5,south-southeast,5.4
2022/05/02,16:00,1.6,south-southeast,4.7
2022/05/02,16:10,1.5,south-southeast,5.4
2022/05/02,16:20,1.5,south-southeast,5.3
2022/05/02,16:30,1.5,south-southeast,5.6
2022/05/02,16:40,1.4,south-southeast,5.8
2022/05/02,16:50,1.5,south-southeast,6.0
2022/05/02,17:00,1.5,south-southeast,6.4
2022/05/02,17:10,1.5,south-southeast,6.1
2022/05/02,17:20,1.5,south-southeast,6.5
2022/05/02,17:30,1.5,south-southeast,6.5
2022/05/02,17:40,1.6,south,6.2
2022/05/02,17:50,1.5,south,6.6
2022/05/02,18:00,1.4,south,5.4
2022/05/02,18:10,1.5,south-southwest,4.1
2022/05/02,18:20,1.5,south-southwest,3.8
2022/05/02,18:30,1.5,west-southwest,2.9
2022/05/02,18:40,1.5,west-southwest,3.1
2022/05/02,18:50,1.4,west-southwest,3.4
2022/05/02,19:00,1.5,west,3.9
2022/05/02,19:10,1.5,northwest,2.8
2022/05/02,19:20,1.5,north-northwest,1.5
2022/05/02,19:30,1.5,south-southwest,1.2
2022/05/02,19:40,1.5,south,1.9
2022/05/02,19:50,1.6,southwest,2.8
2022/05/02,20:00,1.5,southwest,3.9
2022/05/02,20:10,1.5,south-southwest,4.2
2022/05/02,20:20,1.5,southwest,4.7
2022/05/02,20:30,1.5,southwest,3.8
2022/05/02,20:40,1.5,southwest,3.2
2022/05/02,20:50,1.5,west-southwest,3.8
2022/05/02,21:00,1.4,west-southwest,3.5
2022/05/02,21:10,1.5,west-northwest,1.5
2022/05/02,21:20,1.5,northwest,1.7
2022/05/02,21:30,1.5,north,2.3
2022/05/02,21:40,1.5,north-northwest,2.5
2022/05/02,21:50,1.5,northwest,2.8
2022/05/02,22:00,1.4,northwest,4.5
2022/05/02,22:10,1.5,northwest,3.8
2022/05/02,22:20,1.5,northwest,4.4
2022/05/02,22:30,1.5,northwest,4.8
2022/05/02,22:40,1.4,northwest,3.9
2022/05/02,22:50,1.5,northwest,4.6
2022/05/02,23:00,1.5,northwest,5.4
2022/05/02,23:10,1.6,northwest,4.3
2022/05/02,23:20,1.5,northwest,4.3
2022/05/02,23:30,1.4,northwest,4.5
2022/05/02,23:40,1.4,northwest,4.1
2022/05/02,23:50,1.5,northwest,4.0
